World > North America > United States > Iowa > Corydon  

Corydon, IA Hourly Weather Updates

Feedback E-mail the Weather

Quick Clicks

Corydon, IA Weather Maps

°F °C°F °C
Corydon Weather Map
UTC Time: 6/18/2024, 19:46
Your Time:

Corydon, IA Regional Weather

Expires:202406182000;;248252
ASUS43 KDMX 181906
RWRIA 

WEATHER ROUNDUP FOR IOWA
NATIONAL WEATHER SERVICE DES MOINES IA
200 PM CDT TUE JUN 18 2024

NOTE: "FAIR" INDICATES FEW OR NO CLOUDS BELOW 12,000 FEET WITH NO
SIGNIFICANT WEATHER AND/OR OBSTRUCTIONS TO VISIBILITY.

* - THESE STATIONS ARE NOT NWS STATIONS...THUS NOT UNDER NWS
QUALITY CONTROL.  THEY ALSO DO NOT REPORT WEATHER SUCH 
AS PRECIPITATION OR FOG.  


IAZ062-063-075>077-085>089-095>099-182000-
   SOUTHEAST IOWA
  
CITY           SKY/WX    TMP DP  RH WIND       PRES   REMARKS
BURLINGTON     PTSUNNY   87  72  60 S17G26    29.92R HX  93  TC  31   
FAIRFIELD *    MOSUNNY   90  66  45 S22G29    29.88R HX  92  TC  32   
FORT MADISON * PTSUNNY   90  70  51 S21G31    29.91S HX  95  TC  32   
KEOKUK *       MOSUNNY   88  68  51 S17G26    29.92R HX  91  TC  31   
OSKALOOSA *    SUNNY     93  70  46 S22G28    29.86S HX  98  TC  34   
OTTUMWA        PTSUNNY   89  71  55 S26G33    29.87R HX  95  TC  32   
WASHINGTON *   MOSUNNY   91  66  43 S23G31    29.87R HX  94  TC  33   
$$

ABBREVIATIONS USED IN REMARKS
   TC - TEMPERATURES IN CELSIUS
  WCI - WIND CHILL INDEX
   HX - HEAT INDEX
  VSB - VISIBILITY  
$$

  

SKY/WX - Weather  TMP - Temperature  DP - Dew Point  RH - Humidity
WIND - Wind Direction/Speed PRES - Barometric Pressure VSB - Visibility
WCI - Wind Chill Index E13G22 Wind - East Wind 13 mph/Gusts of 22 mph

Trending Headlines

Trending Entertainment Headlines

Corydon Radar Loop

Use the map search tool if you want to place a location marker on the radar map...

Corydon Quick Facts

National Two Day Weather Forecast


E-mail the Corydon Weather Forecast

Voice your opinion or tell us about page issues...